Temp
-17 -16 -17 -17 -17 -16 -16 -16 -15 -15 -15 -15 -15 -15 -16 -16 -16 -16 -16 -15 -15 -14 -14 -14 -14 -14 -14 -15 -15 -15 -15 -15 -15 -15 -15 -16 -16 -16 -16 -16 -17 -17 -18 -18
-17 -17 -17 -16 -16 -16 -16 -16 -16 -16 -15 -15 -16 -16 -15 -15 -15 -15 -15 -15 -14 -15 -15 -15 -15 -15 -15 -15 -15 -15 -15 -15 -15 -15 -16 -16 -17 -17 -17 -17 -18 -18 -18 -18
-17 -17 -17 -16 -17 -16 -16 -16 -16 -16 -16 -15 -15 -15 -15 -15 -15 -15 -15 -15 -15 -15 -15 -15 -15 -16 -16 -16 -16 -16 -16 -15 -16 -16 -16 -17 -16 -17 -18 -18 -18 -18 -19 -19
-17 -17 -17 -17 -17 -17 -16 -16 -16 -16 -16 -16 -16 -15 -15 -15 -15 -15 -15 -15 -15 -15 -15 -15 -16 -16 -16 -16 -16 -15 -15 -16 -16 -17 -17 -17 -17 -17 -18 -18 -18 -19 -19 -19
-17 -17 -17 -17 -17 -17 -16 -16 -16 -16 -16 -15 -15 -15 -14 -15 -15 -15 -15 -15 -15 -15 -16 -16 -16 -15 -15 -15 -16 -16 -16 -17 -17 -16 -16 -17 -18 -18 -19 -19 -19 -19 -19 -19
-17 -17 -17 -17 -16 -16 -16 -15 -15 -15 -15 -15 -15 -15 -14 -15 -15 -15 -15 -15 -15 -16 -16 -16 -16 -15 -15 -15 -16 -16 -16 -16 -16 -17 -18 -18 -19 -19 -19 -19 -19 -19 -18 -18
-16 -16 -16 -16 -16 -16 -16 -15 -15 -15 -15 -15 -15 -15 -14 -15 -15 -15 -15 -15 -15 -15 -15 -16 -16 -15 -15 -15 -16 -16 -16 -16 -17 -17 -18 -18 -18 -18 -18 -18 -19 -19 -19 -18
-16 -16 -16 -16 -16 -16 -15 -15 -15 -15 -15 -15 -15 -14 -14 -14 -14 -14 -14 -14 -15 -15 -15 -15 -15 -15 -15 -15 -16 -16 -16 -17 -17 -17 -18 -17 -18 -18 -19 -19 -19 -19 -19 -19
-16 -16 -16 -16 -16 -15 -15 -15 -15 -15 -15 -14 -14 -14 -14 -14 -14 -14 -14 -14 -14 -15 -15 -15 -15 -15 -15 -15 -16 -16 -16 -17 -17 -17 -18 -19 -19 -19 -19 -19 -19 -19 -19 -19
-15 -15 -15 -15 -15 -15 -15 -15 -15 -15 -14 -14 -14 -14 -14 -14 -14 -14 -14 -14 -15 -15 -15 -15 -15 -15 -15 -16 -16 -16 -16 -17 -17 -18 -18 -18 -19 -19 -19 -19 -20 -20 -19 -19
-16 -15 -15 -15 -15 -15 -15 -15 -15 -15 -14 -14 -14 -15 -15 -14 -15 -14 -14 -14 -15 -15 -15 -15 -15 -15 -16 -16 -16 -16 -17 -17 -18 -18 -18 -19 -19 -20 -20 -19 -19 -19 -20 -20
-16 -16 -15 -15 -15 -15 -15 -15 -15 -15 -15 -15 -15 -15 -15 -15 -14 -14 -14 -15 -15 -15 -15 -15 -15 -15 -15 -16 -16 -16 -17 -17 -18 -19 -19 -20 -20 -20 -20 -20 -20 -20 -20 -21
-16 -15 -15 -15 -15 -15 -15 -15 -15 -15 -15 -15 -15 -15 -15 -15 -15 -15 -15 -15 -15 -15 -15 -15 -16 -16 -16 -16 -17 -17 -18 -19 -19 -20 -20 -20 -20 -20 -20 -20 -20 -21 -21 -21
-15 -15 -15 -15 -15 -15 -15 -15 -15 -15 -15 -15 -15 -15 -15 -15 -15 -15 -15 -15 -15 -15 -16 -16 -16 -16 -16 -17 -17 -18 -19 -19 -20 -20 -20 -20 -20 -20 -21 -21 -21 -21 -21 -22
-15 -15 -15 -15 -15 -15 -15 -15 -15 -15 -15 -15 -15 -15 -16 -15 -15 -15 -15 -15 -16 -16 -16 -16 -16 -17 -17 -18 -18 -19 -19 -20 -20 -20 -20 -21 -21 -21 -21 -21 -21 -22 -22 -23
-15 -15 -15 -15 -15 -15 -15 -15 -15 -15 -15 -15 -15 -15 -16 -15 -15 -15 -16 -16 -16 -16 -16 -17 -17 -17 -18 -18 -19 -19 -20 -20 -20 -20 -21 -21 -21 -22 -21 -22 -22 -23 -23 -23
-15 -15 -15 -15 -15 -15 -14 -15 -15 -15 -15 -16 -15 -16 -16 -16 -16 -16 -16 -16 -16 -17 -17 -17 -17 -18 -18 -19 -19 -20 -20 -21 -21 -21 -21 -22 -22 -22 -22 -23 -23 -23 -24 -25
-15 -15 -15 -15 -15 -14 -14 -15 -15 -15 -16 -16 -16 -16 -16 -16 -16 -16 -17 -17 -17 -17 -17 -18 -18 -18 -19 -19 -20 -20 -21 -21 -21 -21 -22 -22 -22 -22 -23 -23 -23 -24 -25 -26
-15 -15 -15 -14 -15 -14 -15 -15 -15 -15 -15 -16 -16 -16 -16 -16 -16 -17 -17 -17 -17 -18 -18 -18 -18 -18 -19 -19 -20 -20 -21 -21 -21 -21 -22 -22 -22 -23 -23 -23 -24 -25 -26 -27
-15 -15 -15 -15 -15 -14 -15 -15 -15 -15 -15 -16 -16 -16 -16 -16 -17 -17 -17 -18 -18 -18 -18 -18 -19 -19 -19 -20 -20 -21 -21 -21 -22 -22 -22 -23 -23 -23 -23 -23 -24 -26 -27 -28
-15 -15 -15 -15 -15 -14 -16 -16 -16 -16 -16 -16 -16 -16 -17 -17 -18 -18 -18 -18 -18 -18 -19 -19 -19 -20 -20 -20 -21 -21 -22 -22 -22 -22 -23 -23 -23 -23 -24 -24 -25 -27 -28 -29
-15 -15 -15 -15 -15 -15 -16 -16 -16 -16 -16 -16 -17 -17 -18 -18 -18 -18 -18 -18 -19 -19 -19 -19 -20 -20 -20 -21 -21 -21 -22 -22 -22 -23 -23 -23 -23 -23 -24 -25 -27 -28 -29 -30
-15 -15 -15 -15 -16 -16 -16 -16 -16 -17 -17 -18 -18 -18 -18 -18 -18 -18 -18 -19 -19 -19 -19 -20 -20 -20 -20 -21 -21 -22 -22 -22 -23 -24 -24 -23 -23 -24 -25 -26 -28 -29 -30 -31
-15 -15 -16 -16 -17 -17 -17 -16 -17 -17 -17 -18 -18 -18 -18 -18 -18 -18 -19 -19 -19 -19 -19 -20 -20 -20 -21 -21 -22 -22 -22 -23 -24 -24 -23 -24 -24 -25 -25 -27 -28 -30 -31 -32
-16 -16 -17 -16 -17 -17 -17 -17 -17 -18 -18 -18 -18 -19 -19 -19 -19 -19 -19 -19 -20 -20 -21 -21 -21 -21 -21 -22 -22 -23 -23 -24 -24 -24 -25 -25 -25 -25 -27 -28 -29 -31 -32 -33
-17 -17 -16 -16 -17 -17 -17 -18 -18 -18 -18 -18 -18 -19 -19 -19 -19 -20 -20 -20 -20 -20 -21 -21 -21 -22 -22 -22 -23 -23 -24 -25 -24 -25 -25 -25 -25 -27 -28 -28 -30 -32 -33 -33
Height
5777 5780 5783 5787 5790 5793 5796 5798 5798 5800 5802 5804 5806 5809 5810 5812 5813 5814 5814 5814 5814 5815 5814 5813 5813 5812 5811 5810 5809 5807 5805 5800 5798 5790 5788 5783 5781 5776 5773 5769 5764 5758 5754 5751
5778 5782 5785 5787 5790 5792 5794 5797 5798 5800 5802 5804 5806 5807 5809 5811 5811 5812 5812 5812 5812 5811 5810 5810 5809 5808 5806 5805 5804 5801 5798 5794 5791 5785 5780 5775 5770 5768 5765 5761 5757 5752 5747 5742
5779 5782 5784 5786 5788 5791 5792 5795 5798 5800 5801 5803 5805 5806 5807 5809 5809 5809 5809 5809 5808 5807 5807 5807 5805 5802 5800 5799 5797 5795 5790 5786 5781 5776 5773 5770 5767 5763 5758 5751 5745 5741 5737 5732
5778 5781 5783 5785 5787 5789 5791 5794 5796 5798 5800 5801 5803 5805 5804 5805 5806 5805 5805 5805 5804 5803 5802 5800 5798 5796 5794 5792 5789 5787 5783 5780 5775 5771 5767 5763 5758 5753 5747 5743 5738 5733 5728 5722
5779 5780 5782 5784 5786 5788 5791 5794 5795 5796 5798 5799 5800 5800 5801 5801 5801 5801 5800 5799 5799 5798 5797 5794 5792 5789 5787 5785 5782 5779 5776 5773 5770 5764 5759 5753 5748 5743 5738 5734 5728 5723 5717 5710
5776 5778 5781 5783 5786 5788 5790 5791 5792 5793 5794 5794 5795 5794 5794 5795 5795 5794 5793 5793 5793 5792 5790 5788 5786 5783 5781 5779 5777 5773 5770 5766 5760 5754 5751 5746 5741 5736 5730 5724 5718 5711 5704 5696
5775 5777 5780 5783 5785 5786 5788 5789 5789 5790 5790 5790 5790 5789 5791 5790 5789 5788 5788 5788 5787 5786 5784 5782 5780 5778 5775 5773 5769 5766 5762 5757 5752 5747 5743 5738 5732 5726 5720 5713 5706 5699 5691 5683
5774 5777 5778 5780 5782 5784 5785 5786 5787 5786 5787 5787 5786 5786 5787 5785 5784 5784 5784 5783 5783 5782 5780 5778 5775 5773 5770 5767 5763 5759 5754 5749 5744 5739 5734 5728 5722 5715 5708 5701 5693 5685 5677 5668
5771 5773 5775 5776 5777 5780 5781 5782 5783 5783 5783 5784 5784 5784 5784 5783 5782 5782 5782 5781 5780 5778 5776 5774 5771 5768 5765 5761 5756 5752 5747 5742 5736 5729 5722 5716 5710 5703 5695 5688 5680 5672 5663 5654
5769 5770 5771 5772 5773 5775 5777 5779 5781 5781 5782 5782 5783 5782 5782 5781 5781 5780 5779 5778 5776 5774 5772 5769 5766 5762 5758 5754 5749 5744 5738 5733 5726 5720 5713 5706 5699 5690 5683 5676 5668 5660 5650 5640
5765 5767 5769 5769 5771 5773 5775 5776 5778 5779 5779 5780 5780 5781 5779 5779 5778 5777 5776 5774 5772 5769 5766 5763 5759 5755 5751 5746 5741 5734 5728 5721 5715 5708 5700 5692 5685 5678 5671 5663 5654 5645 5634 5622
5761 5762 5764 5766 5768 5770 5772 5774 5776 5776 5778 5777 5777 5778 5776 5775 5774 5773 5771 5769 5766 5763 5760 5756 5752 5747 5741 5735 5729 5723 5716 5710 5703 5696 5688 5681 5674 5666 5659 5650 5640 5629 5617 5604
5758 5760 5762 5765 5767 5768 5770 5772 5773 5773 5774 5774 5774 5773 5771 5770 5769 5767 5765 5762 5759 5755 5751 5747 5742 5736 5730 5724 5717 5711 5705 5699 5692 5685 5677 5669 5661 5654 5645 5636 5625 5613 5601 5587
5756 5758 5760 5763 5764 5765 5767 5768 5769 5770 5770 5769 5770 5768 5765 5764 5763 5760 5758 5755 5751 5746 5741 5736 5731 5725 5719 5713 5706 5701 5695 5687 5681 5673 5665 5657 5649 5640 5631 5621 5609 5597 5584 5569
5753 5756 5758 5759 5761 5762 5764 5764 5765 5765 5765 5764 5764 5762 5757 5757 5755 5753 5750 5745 5741 5736 5731 5726 5720 5714 5709 5702 5696 5690 5682 5675 5668 5660 5652 5644 5635 5626 5616 5605 5593 5580 5565 5550
5751 5754 5754 5756 5758 5759 5759 5760 5761 5760 5759 5757 5755 5757 5749 5747 5745 5743 5739 5735 5730 5725 5720 5715 5709 5704 5698 5691 5685 5678 5670 5662 5655 5647 5639 5630 5622 5612 5601 5589 5575 5561 5547 5532
5749 5751 5752 5753 5754 5754 5754 5758 5755 5754 5752 5750 5748 5747 5742 5739 5735 5732 5728 5723 5719 5714 5709 5703 5698 5693 5686 5679 5673 5665 5658 5650 5642 5634 5625 5617 5608 5598 5585 5571 5558 5544 5529 5511
5745 5746 5747 5748 5749 5746 5751 5751 5749 5746 5744 5742 5740 5737 5732 5728 5725 5722 5717 5712 5708 5702 5697 5692 5686 5680 5674 5667 5660 5652 5645 5637 5629 5621 5613 5604 5594 5582 5569 5554 5541 5527 5510 5493
5741 5741 5741 5741 5741 5741 5742 5741 5741 5737 5736 5733 5729 5725 5720 5717 5713 5710 5705 5701 5695 5690 5684 5678 5673 5667 5661 5654 5647 5640 5633 5626 5618 5610 5599 5588 5577 5565 5552 5539 5525 5509 5492 5479
5736 5735 5736 5735 5733 5732 5733 5733 5731 5727 5723 5722 5717 5714 5710 5705 5701 5697 5692 5687 5682 5677 5671 5665 5659 5654 5647 5641 5634 5628 5621 5613 5605 5595 5584 5573 5561 5548 5537 5523 5508 5492 5479 5467
5730 5729 5728 5727 5725 5723 5724 5721 5718 5715 5713 5708 5705 5701 5698 5694 5689 5684 5679 5675 5670 5664 5658 5652 5646 5641 5635 5628 5622 5615 5607 5599 5589 5579 5569 5558 5546 5534 5521 5506 5491 5477 5467 5455
5724 5722 5721 5719 5717 5714 5712 5709 5706 5702 5698 5695 5691 5689 5684 5680 5676 5671 5666 5662 5657 5651 5645 5640 5633 5628 5622 5615 5608 5601 5593 5584 5575 5564 5554 5543 5532 5519 5505 5490 5477 5465 5454 5444
5716 5714 5712 5711 5709 5704 5699 5695 5691 5689 5686 5683 5679 5675 5672 5668 5664 5658 5654 5650 5645 5640 5633 5627 5623 5616 5609 5602 5595 5587 5578 5569 5559 5549 5539 5528 5516 5504 5490 5476 5464 5453 5442 5433
5705 5701 5701 5699 5698 5691 5686 5683 5681 5677 5674 5671 5667 5664 5660 5656 5651 5646 5642 5638 5632 5626 5620 5616 5609 5601 5594 5586 5579 5572 5564 5554 5543 5534 5523 5512 5501 5488 5475 5463 5452 5440 5431 5423
5694 5691 5688 5685 5683 5678 5676 5674 5671 5666 5663 5660 5656 5652 5648 5644 5639 5634 5630 5625 5619 5613 5608 5602 5595 5588 5580 5571 5564 5557 5548 5538 5528 5518 5507 5495 5484 5473 5461 5450 5439 5429 5421 5414
5684 5678 5675 5672 5672 5668 5667 5663 5660 5657 5653 5649 5645 5642 5637 5633 5627 5622 5617 5611 5605 5600 5594 5588 5581 5572 5564 5556 5548 5540 5532 5523 5513 5502 5490 5479 5471 5458 5448 5438 5428 5419 5411 5405
Wind_Speed
15 10 15 12 13 10 15 13 11 11 13 14 11 10 8 11 13 12 12 12 12 13 13 13 16 17 20 20 21 19 21 27 41 45 49 45 46 45 49 53 51 47 45 45
19 18 18 18 13 15 12 18 16 14 11 12 10 12 10 8 10 9 9 11 13 14 15 17 18 20 21 21 19 22 32 36 39 41 45 49 50 51 51 49 46 44 44 44
19 16 10 10 14 16 17 22 16 13 11 11 12 10 7 5 6 6 8 10 12 15 17 19 21 22 24 26 26 31 36 41 43 44 46 48 50 49 47 49 47 47 48 51
14 17 17 18 18 16 18 25 21 16 17 15 15 13 9 7 7 9 12 14 16 18 18 18 21 22 23 25 31 37 39 39 42 47 51 52 49 48 49 48 49 51 53 54
16 19 18 17 20 19 19 16 19 22 26 22 17 15 8 9 10 13 15 16 17 16 17 21 23 25 27 32 35 37 40 40 50 50 47 45 48 48 47 49 51 53 55 57
25 16 19 20 24 18 17 19 18 20 20 18 13 16 10 12 16 16 17 16 15 15 18 22 24 27 30 32 35 37 39 41 42 44 45 45 48 48 50 53 54 55 57 59
17 17 15 18 21 19 18 18 17 17 17 16 14 16 11 11 13 14 13 13 14 16 18 20 22 24 26 27 30 33 35 38 40 43 46 50 51 51 52 53 56 57 58 62
17 19 18 15 18 21 20 19 19 19 17 15 12 6 6 9 9 8 6 6 8 9 12 15 18 21 24 26 29 32 36 39 42 46 48 47 50 54 56 56 57 59 63 67
17 17 15 14 16 18 19 19 17 14 9 6 3 4 3 2 0 2 4 6 9 11 13 16 20 23 26 29 32 34 37 39 42 48 50 53 57 60 58 58 60 63 67 72
16 16 16 15 17 17 16 13 11 9 7 4 4 2 3 5 6 7 8 10 13 14 16 19 23 26 29 31 34 38 41 42 44 47 51 55 56 57 58 59 62 66 72 77
17 18 18 17 15 14 13 12 10 8 7 6 6 6 7 9 10 11 14 16 17 19 21 25 28 30 32 33 36 41 44 47 48 50 54 57 58 58 59 61 66 71 77 82
18 17 17 18 17 15 13 13 12 10 9 10 10 9 11 14 15 16 18 20 21 23 26 29 31 34 37 39 43 46 49 50 51 52 56 57 57 58 60 65 70 77 81 87
15 14 17 17 16 15 14 15 14 14 13 12 14 17 19 21 21 22 24 26 27 29 32 34 36 38 40 42 45 49 50 50 51 54 58 58 58 59 64 70 75 80 84 86
15 14 16 17 18 19 17 18 18 19 19 19 18 21 25 27 28 29 30 32 33 35 37 39 39 40 43 45 48 50 50 50 52 57 58 58 59 63 69 73 78 82 84 87
16 15 17 20 21 21 21 21 21 22 23 25 24 26 32 33 34 35 36 37 38 40 41 43 42 44 46 48 51 51 51 52 55 58 58 59 62 67 71 76 80 83 86 92
17 17 20 22 23 24 24 24 22 24 27 30 32 30 36 38 40 40 40 41 42 44 45 46 46 47 50 53 53 52 52 54 56 59 58 60 65 69 74 78 82 86 90 94
17 18 22 24 25 28 29 22 27 30 32 35 37 37 41 42 44 44 44 45 46 47 47 49 50 50 53 54 53 53 55 56 58 58 59 63 68 73 77 80 85 89 93 94
18 21 24 26 29 32 28 28 32 36 39 41 42 43 45 48 48 46 47 47 48 48 50 52 52 53 54 55 55 57 57 58 59 59 63 67 72 76 80 84 87 91 93 83
19 22 25 27 29 32 33 34 35 40 42 43 46 48 50 51 51 49 51 49 49 51 53 54 55 55 56 56 58 58 58 60 60 64 68 72 75 78 83 87 90 92 82 76
21 24 26 28 31 33 33 34 37 41 43 42 46 48 49 51 52 50 50 51 51 53 55 55 55 56 57 58 57 58 59 61 65 69 71 75 79 82 86 90 94 84 76 70
22 24 27 29 33 36 36 37 39 42 46 47 48 48 49 49 49 49 51 52 53 53 53 55 56 57 58 57 58 59 60 64 67 72 76 79 82 88 88 90 88 77 72 65
26 30 30 33 36 39 40 41 44 45 46 47 47 46 47 47 48 50 51 51 51 51 53 55 57 58 58 59 59 60 63 67 70 75 78 82 87 87 87 89 78 72 66 58
33 35 37 38 37 39 43 44 45 45 45 45 46 46 47 48 49 50 50 51 51 52 55 56 56 55 56 58 59 63 66 70 73 74 78 82 86 86 87 82 73 68 60 50
38 40 39 39 35 39 43 44 43 44 44 44 45 46 47 47 48 50 51 52 55 58 59 56 58 59 60 61 63 68 72 75 74 76 79 83 83 85 86 73 70 61 52 43
40 36 35 36 36 39 39 39 40 42 43 43 44 44 45 48 51 52 54 55 57 56 59 61 60 57 64 65 70 74 74 74 76 77 77 80 84 87 75 69 62 54 44 38
29 34 38 39 36 39 39 39 41 42 42 42 44 47 49 51 53 53 53 55 57 57 59 61 63 63 65 71 73 73 73 76 75 78 80 82 84 75 68 65 55 47 39 35
Wind_Direction
197 191 143 151 177 189 199 212 212 204 196 191 187 189 195 204 228 232 240 256 264 267 271 273 279 288 289 288 286 276 268 287 292 306 310 318 316 316 313 312 310 310 307 303
181 180 182 189 175 202 209 203 206 216 220 215 205 211 208 221 231 231 239 259 265 278 290 300 299 300 295 297 289 285 298 305 305 305 309 312 315 312 313 311 305 300 301 301
199 194 218 234 199 209 205 198 211 226 251 231 224 221 212 227 240 246 262 277 281 287 288 299 295 300 291 294 294 298 302 306 311 311 307 306 307 309 309 310 311 310 309 308
194 210 218 220 219 220 211 209 213 220 218 231 239 236 241 250 269 282 285 284 287 294 297 303 305 296 298 304 296 299 299 298 302 298 298 302 308 310 312 308 307 307 305 301
216 225 215 219 215 221 220 232 238 245 251 252 253 266 269 279 286 283 286 292 291 296 303 297 297 293 286 289 294 296 296 296 293 301 306 311 311 310 306 302 301 299 297 297
232 235 217 215 218 224 233 255 247 243 244 255 275 287 290 293 289 288 284 284 293 298 290 291 293 295 296 300 301 298 303 305 307 309 308 303 303 298 297 298 299 300 302 304
206 201 209 220 226 237 252 248 251 257 265 281 284 283 293 289 270 268 278 287 293 295 297 298 303 311 318 321 317 315 314 311 308 306 302 298 296 298 301 302 304 307 307 308
210 220 229 226 228 234 241 245 253 262 269 273 272 285 274 255 262 275 303 317 319 319 319 321 321 320 319 318 317 316 315 312 307 304 299 298 304 306 305 305 307 308 309 309
220 227 228 232 233 239 243 249 252 251 253 249 235 247 239 204 296 347 334 335 333 327 322 324 322 318 315 315 313 311 308 305 308 310 308 303 301 305 306 308 310 310 310 309
232 236 233 235 239 239 240 231 229 229 213 200 185 231 274 290 305 312 316 321 323 321 320 321 320 318 317 315 308 305 306 304 306 309 307 305 306 306 308 309 309 310 310 312
232 232 230 228 227 220 221 220 216 213 217 245 263 274 283 291 304 304 305 308 311 315 315 316 317 314 312 311 310 312 310 308 309 311 312 309 308 308 308 309 310 312 313 313
229 229 227 218 208 211 213 212 211 225 248 269 281 279 288 294 301 301 303 303 302 303 308 310 312 313 315 315 314 314 313 311 309 312 310 308 307 307 309 310 313 314 314 314
224 222 216 214 216 211 211 217 226 242 259 276 284 287 290 294 297 300 302 303 302 303 305 307 310 312 314 312 311 311 309 308 309 309 308 309 308 310 311 313 315 314 316 317
223 219 220 219 215 218 219 228 240 251 262 274 288 287 289 289 296 298 300 301 302 303 304 304 306 309 310 307 306 305 305 307 307 308 311 309 310 312 313 313 313 316 318 319
219 221 224 223 224 231 235 242 252 263 269 277 281 285 290 290 293 295 298 300 301 300 300 301 303 305 306 304 302 304 306 304 306 311 311 311 312 312 313 314 317 320 321 320
226 226 229 232 235 240 245 250 260 268 273 278 280 285 286 292 293 295 297 299 300 299 299 301 299 301 304 303 304 304 304 304 308 312 311 312 312 313 316 318 322 322 320 319
242 241 243 245 248 253 255 261 266 270 277 279 282 286 289 290 292 295 297 298 298 299 298 299 299 298 302 306 305 304 303 305 309 311 312 313 314 318 319 322 323 321 320 322
249 250 253 257 257 262 270 266 269 274 277 281 284 287 288 288 291 294 295 296 297 296 297 298 299 297 303 306 304 304 305 307 309 311 315 316 318 319 322 324 321 321 322 323
256 260 262 264 266 272 273 274 274 275 277 283 287 286 287 290 292 294 295 296 296 296 297 299 300 300 304 306 306 305 305 305 307 310 314 318 319 318 322 323 322 322 324 323
265 267 270 274 277 283 284 282 280 281 283 282 282 286 288 290 294 295 295 295 297 298 299 300 301 304 306 306 304 305 307 307 308 312 313 314 315 321 322 324 324 324 323 323
280 282 282 283 285 290 290 290 289 287 287 289 289 290 292 293 292 293 294 296 298 299 301 303 304 305 305 305 308 309 308 308 311 313 313 312 321 322 324 325 325 323 322 322
284 284 284 284 288 290 290 288 286 287 287 288 290 292 291 290 292 293 295 298 299 301 301 302 302 306 308 310 310 307 308 311 312 312 311 317 320 322 324 326 323 322 321 321
286 286 287 289 290 288 286 286 287 288 289 290 292 292 293 295 296 297 298 298 300 300 300 301 306 306 309 308 307 308 308 307 307 309 312 320 322 324 326 324 322 321 321 319
289 288 289 290 286 283 283 287 290 291 294 294 293 294 296 296 296 296 298 300 302 302 300 305 307 308 309 308 308 307 306 304 304 308 317 321 323 325 325 322 321 321 319 316
289 290 287 284 281 283 287 291 291 291 292 293 293 293 294 296 297 299 301 301 300 302 302 303 306 303 302 306 304 301 302 303 305 314 323 325 326 325 323 321 321 320 318 315
291 286 285 288 289 290 291 288 287 289 290 290 292 295 297 298 300 301 301 301 303 303 303 303 302 304 303 298 293 297 300 302 312 321 324 326 324 324 322 322 322 319 317 314